Springfield, IL

12:27 AM CST on December 06, 2019 (GMT -0600)
Capital

Weather History for KSPI - October, 2019

Change the Weather History Date:

Thursday, October 17, 2019

  Actual Average Record
Temperature  
Mean Temperature 46 °F 55 °F  
Max Temperature 60 °F 66 °F 88 °F (2016)
Min Temperature 31 °F 43 °F 26 °F (1948)
Degree Days  
Heating Degree Days 19 11  
Month to date heating degree days 155 147  
Since 1 July heating degree days 156 228  
Cooling Degree Days 0 1  
Month to date cooling degree days 32 19  
Year to date cooling degree days 1309 1118  
Moisture  
Dew Point 35 °F    
Average Humidity 68    
Maximum Humidity 96    
Minimum Humidity 40    
Precipitation  
Precipitation 0.00 in 0.10 in 2.10 in (1946)
Month to date precipitation 0.68 1.68  
Year to date precipitation 41.23 30.23  
Snow  
Snow 0.00 in 0.00 in T in (1884)
Month to date snowfall 0.0 0.0  
Since 1 July snowfall 0.0 0.0  
Since 1 September snowfall 0.0 0.0  
Snow Depth 0.00 in    
Sea Level Pressure  
Sea Level Pressure 30.06 in    
Wind  
Wind Speed 3 mph (West)    
Max Wind Speed 10 mph    
Max Gust Speed 15 mph    
Visibility 10 miles    
Events      
T = Trace of Precipitation, MM = Missing Value Source: NWS Daily Summary

Daily Weather History Graph

Daily Weather History Graph

Search for Another Location

Airport or City:

Astronomy

Oct. 17, 2019 Rise Set
Actual Time 7:10 AM CDT 6:16 PM CDT
Civil Twilight 6:43 AM CDT 6:43 PM CDT
Nautical Twilight 6:12 AM CDT 7:15 PM CDT
Astronomical Twilight 5:40 AM CDT 7:46 PM CDT
Moon 8:48 PM CDT (10/17) 10:42 AM CDT (10/17)
Length of Visible Light 12h 00m
Length of Day
11h 05m
Waning Gibbous, 86% of the Moon is Illuminated
Oct 17
Waning Gibbous
Oct 21
Last Quarter
Oct 27
New
Nov 4
First Quarter
Nov 12
Full

Hourly Weather History & Observations

Time (CDT) Temp. Windchill Dew Point Humidity Pressure Visibility Wind Dir Wind Speed Gust Speed Precip Events Conditions
12:52 AM 37.0 °F 34.5 °F 34.0 °F 89% 30.09 in 10.0 mi WSW 3.5 mph - N/A   Clear
1:52 AM 34.0 °F - 32.0 °F 92% 30.10 in 10.0 mi Calm Calm - N/A   Clear
2:52 AM 34.0 °F - 32.0 °F 92% 30.09 in 10.0 mi Calm Calm - N/A   Clear
3:52 AM 32.0 °F 28.7 °F 30.0 °F 92% 30.08 in 6.0 mi West 3.5 mph - N/A   Clear
4:52 AM 33.1 °F 30.0 °F 30.0 °F 89% 30.08 in 10.0 mi SW 3.5 mph - N/A   Clear
5:52 AM 34.0 °F 31.0 °F 32.0 °F 92% 30.08 in 10.0 mi WSW 3.5 mph - N/A   Clear
6:52 AM 32.0 °F 28.7 °F 28.0 °F 85% 30.09 in 10.0 mi WSW 3.5 mph - N/A   Clear
7:52 AM 35.1 °F 32.2 °F 33.1 °F 92% 30.10 in 10.0 mi WSW 3.5 mph - N/A   Clear
8:52 AM 42.1 °F 39.2 °F 37.0 °F 82% 30.12 in 10.0 mi West 4.6 mph - N/A   Clear
9:52 AM 48.0 °F - 37.9 °F 68% 30.12 in 10.0 mi WSW 4.6 mph - N/A   Clear
10:52 AM 52.0 °F - 37.0 °F 57% 30.11 in 10.0 mi Variable 5.8 mph - N/A   Clear
11:52 AM 54.0 °F - 37.0 °F 53% 30.10 in 10.0 mi Variable 3.5 mph - N/A   Clear
12:52 PM 55.9 °F - 37.0 °F 49% 30.07 in 10.0 mi North 6.9 mph - N/A   Partly Cloudy
1:52 PM 57.9 °F - 37.9 °F 47% 30.06 in 10.0 mi Variable 5.8 mph - N/A   Clear
2:52 PM 59.0 °F - 35.1 °F 41% 30.03 in 10.0 mi North - - N/A   Clear
3:52 PM 59.0 °F - 36.0 °F 42% 30.03 in 10.0 mi North 3.5 mph - N/A   Clear
4:52 PM 59.0 °F - 36.0 °F 42% 30.01 in 10.0 mi NNE 3.5 mph - N/A   Clear
5:52 PM 55.9 °F - 36.0 °F 47% 30.01 in 10.0 mi Calm Calm - N/A   Clear
6:52 PM 45.0 °F - 39.0 °F 80% 30.03 in 10.0 mi Calm Calm - N/A   Clear
7:52 PM 44.1 °F - 37.9 °F 79% 30.03 in 10.0 mi Calm Calm - N/A   Clear
8:52 PM 41.0 °F 39.0 °F 36.0 °F 82% 30.02 in 10.0 mi ENE 3.5 mph - N/A   Clear
9:52 PM 41.0 °F - 37.9 °F 89% 30.03 in 10.0 mi Calm Calm - N/A   Clear
10:52 PM 37.9 °F 35.5 °F 34.0 °F 86% 30.04 in 10.0 mi East 3.5 mph - N/A   Clear
11:52 PM 39.9 °F - 36.0 °F 86% 30.03 in 10.0 mi Calm Calm - N/A   Clear